Weather History for Fort Knox, KY

Change the Weather History Date:

Friday, January 18, 2013

  Actual Average Record
Temperature  
Mean Temperature 32 °F -  
Max Temperature 43 °F 38 °F 50 °F (1999)
Min Temperature 22 °F 22 °F 5 °F (2003)
Degree Days  
Heating Degree Days 32    
Moisture  
Dew Point 23 °F    
Average Humidity 68    
Maximum Humidity 89    
Minimum Humidity 46    
Precipitation  
Precipitation 0.00 in - - ()
Sea Level Pressure  
Sea Level Pressure 30.45 in    
Wind  
Wind Speed 6 mph (South)    
Max Wind Speed 12 mph    
Max Gust Speed -    
Visibility 10 miles    
Events      
Averages and records for this station are not official NWS values.
T = Trace of Precipitation, MM = Missing Value Source: NWS Daily Summary

Daily Weather History Graph

Daily Weather History Graph

Search for Another Location

Airport:

Trip Planner

Search our weather history database for the weather conditions in past years. The results will help you decide how hot, cold, wet, or windy it might be!

Date:

Astronomy

Jan. 18, 2013 Rise Set
Actual Time 7:57 AM EST 5:52 PM EST
Civil Twilight 7:28 AM EST 6:20 PM EST
Nautical Twilight 6:56 AM EST 6:52 PM EST
Astronomical Twilight 6:25 AM EST 7:24 PM EST
Moon 11:43 AM EST (1/18) 12:33 AM EST (1/18)
Length of Visible Light 10h 51m
Length of Day
9h 54m
Waxing Crescent, 47% of the Moon is Illuminated
Jan 18
Waxing Crescent
Jan 18
First Quarter
Jan 26
Full
Feb 3
Last Quarter
Feb 10
New

Hourly Weather History & Observations

Time (EST) Temp. Windchill Dew Point Humidity Pressure Visibility Wind Dir Wind Speed Gust Speed Precip Events Conditions
12:55 AM 27.5 °F 21.1 °F 21.7 °F 79% 30.45 in 10.0 mi NNW 5.8 mph - N/A   Clear
1:55 AM 27.5 °F 23.6 °F 21.4 °F 78% 30.46 in 10.0 mi NNW 3.5 mph - N/A   Clear
2:55 AM 24.3 °F 18.4 °F 20.5 °F 85% 30.48 in 10.0 mi West 4.6 mph - N/A   Clear
3:55 AM 24.4 °F 17.5 °F 20.5 °F 85% 30.49 in 10.0 mi WNW 5.8 mph - N/A   Clear
4:55 AM 22.6 °F 16.5 °F 19.8 °F 89% 30.50 in 10.0 mi North 4.6 mph - N/A   Clear
5:55 AM 24.6 °F 18.8 °F 19.8 °F 82% 30.50 in 10.0 mi NNE 4.6 mph - N/A   Clear
6:55 AM 23.5 °F - 19.8 °F 85% 30.51 in 10.0 mi Calm Calm - N/A   Clear
7:55 AM 23.0 °F 15.8 °F 18.5 °F 83% 30.50 in 10.0 mi East 5.8 mph - N/A   Clear
8:55 AM 25.7 °F 21.5 °F 19.9 °F 79% 30.52 in 10.0 mi East 3.5 mph - N/A   Clear
9:55 AM 28.8 °F 21.7 °F 19.9 °F 70% 30.54 in 10.0 mi East 6.9 mph - N/A   Clear
10:55 AM 31.6 °F 27.0 °F 19.0 °F 60% 30.55 in 10.0 mi Variable 4.6 mph - N/A   Clear
11:55 AM 35.6 °F 30.7 °F 21.2 °F 56% 30.54 in 10.0 mi Variable 5.8 mph - N/A   Clear
12:55 PM 38.1 °F 33.7 °F 23.7 °F 56% 30.51 in 10.0 mi SSW 5.8 mph - N/A   Clear
1:55 PM 40.1 °F 34.7 °F 24.4 °F 54% 30.47 in 10.0 mi South 8.1 mph - N/A   Clear
2:55 PM 42.8 °F 37.0 °F 25.0 °F 49% 30.45 in 10.0 mi South 10.4 mph - N/A   Clear
3:55 PM 43.3 °F 37.7 °F 23.7 °F 46% 30.43 in 10.0 mi South 10.4 mph - N/A   Clear
4:55 PM 42.8 °F 37.0 °F 26.1 °F 52% 30.42 in 10.0 mi South 10.4 mph - N/A   Clear
5:55 PM 39.4 °F 33.2 °F 25.0 °F 56% 30.40 in 10.0 mi South 9.2 mph - N/A   Clear
6:55 PM 37.8 °F 30.2 °F 24.8 °F 60% 30.39 in 10.0 mi South 11.5 mph - N/A   Clear
7:55 PM 37.0 °F 29.8 °F 25.3 °F 63% 30.37 in 10.0 mi South 10.4 mph - N/A   Clear
8:55 PM 37.0 °F 30.4 °F 25.5 °F 63% 30.36 in 10.0 mi South 9.2 mph - N/A   Clear
9:55 PM 35.6 °F 29.2 °F 25.3 °F 66% 30.35 in 10.0 mi South 8.1 mph - N/A   Clear
10:55 PM 35.2 °F 30.3 °F 25.3 °F 67% 30.33 in 10.0 mi SSW 5.8 mph - N/A   Clear
11:55 PM 34.2 °F 28.2 °F 25.3 °F 70% 30.32 in 10.0 mi SSW 6.9 mph - N/A   Clear